Moses Lake, WA

7:18 PM PDT on July 20, 2017 (GMT -0700)
Grant County International

Weather History for KMWH - October, 2012

Change the Weather History Date:

Saturday, October 20, 2012

  Actual Average Record
Temperature  
Mean Temperature 46 °F 48 °F  
Max Temperature 55 °F 61 °F 75 °F (2003)
Min Temperature 36 °F 34 °F 23 °F (1984)
Degree Days  
Heating Degree Days 19 17  
Month to date heating degree days 227 269  
Since 1 July heating degree days 300 419  
Cooling Degree Days 0 0  
Month to date cooling degree days 0 0  
Year to date cooling degree days 719 614  
Moisture  
Dew Point 25 °F    
Average Humidity 43    
Maximum Humidity 64    
Minimum Humidity 22    
Precipitation  
Precipitation 0.00 in 0.02 in 0.25 in (2000)
Month to date precipitation 0.26 0.38  
Year to date precipitation 5.84 6.20  
Sea Level Pressure  
Sea Level Pressure 29.80 in    
Wind  
Wind Speed 12 mph (SW)    
Max Wind Speed 26 mph    
Max Gust Speed 35 mph    
Visibility 10 miles    
Events      
T = Trace of Precipitation, MM = Missing Value Source: NWS Daily Summary

Daily Weather History Graph

Daily Weather History Graph

Search for Another Location

Airport or City:

Trip Planner

Search our weather history database for the weather conditions in past years. The results will help you decide how hot, cold, wet, or windy it might be!

Date:

Astronomy

Oct. 20, 2012 Rise Set
Actual Time 7:23 AM PDT 5:59 PM PDT
Civil Twilight 6:52 AM PDT 6:30 PM PDT
Nautical Twilight 6:16 AM PDT 7:06 PM PDT
Astronomical Twilight 5:41 AM PDT 7:41 PM PDT
Moon 1:14 PM PDT (10/20) 10:40 PM PDT (10/20)
Length of Visible Light 11h 38m
Length of Day
10h 35m
Waxing Crescent, 35% of the Moon is Illuminated
Oct 20
Waxing Crescent
Oct 21
First Quarter
Oct 29
Full
Nov 6
Last Quarter
Nov 13
New

Hourly Weather History & Observations

Time (PDT) Temp. Windchill Dew Point Humidity Pressure Visibility Wind Dir Wind Speed Gust Speed Precip Events Conditions
12:52 AM 50.0 °F - 36.0 °F 59% 29.68 in 10.0 mi WSW 13.8 mph - N/A   Clear
1:52 AM 53.1 °F - 30.9 °F 43% 29.68 in 10.0 mi West 16.1 mph - N/A   Clear
2:52 AM 51.1 °F - 33.1 °F 50% 29.70 in 10.0 mi SSW 11.5 mph 21.9 mph N/A   Clear
3:52 AM 50.0 °F - 30.0 °F 46% 29.70 in 10.0 mi WSW 10.4 mph - N/A   Clear
4:52 AM 48.0 °F - 28.0 °F 46% 29.70 in 10.0 mi SW 18.4 mph - N/A   Clear
5:52 AM 46.0 °F 40.6 °F 27.0 °F 47% 29.74 in 10.0 mi WSW 11.5 mph - N/A   Clear
6:52 AM 44.1 °F 41.5 °F 26.1 °F 49% 29.76 in 10.0 mi SSW 4.6 mph - N/A   Clear
7:52 AM 44.1 °F 39.5 °F 24.1 °F 45% 29.78 in 10.0 mi SW 8.1 mph - N/A   Clear
8:52 AM 46.0 °F 41.9 °F 26.1 °F 46% 29.81 in 10.0 mi WSW 8.1 mph - N/A   Clear
9:52 AM 51.1 °F - 25.0 °F 36% 29.82 in 10.0 mi WSW 10.4 mph - N/A   Clear
10:52 AM 53.6 °F - 24.8 °F 33% 29.82 in 10.0 mi WSW 21.9 mph 27.6 mph N/A   Clear
11:52 AM 51.1 °F - 26.1 °F 38% 29.83 in 10.0 mi SW 17.3 mph 24.2 mph N/A   Scattered Clouds
12:52 PM 55.0 °F - 25.0 °F 31% 29.83 in 10.0 mi WSW 23.0 mph 31.1 mph N/A   Mostly Cloudy
1:52 PM 55.4 °F - 23.0 °F 29% 29.82 in 10.0 mi WSW 17.3 mph 28.8 mph N/A   Clear
2:52 PM 54.0 °F - 25.0 °F 33% 29.82 in 10.0 mi SW 16.1 mph 25.3 mph N/A   Clear
3:52 PM 55.0 °F - 19.9 °F 25% 29.82 in 10.0 mi WSW 17.3 mph 24.2 mph N/A   Clear
4:52 PM 53.1 °F - 16.0 °F 23% 29.82 in 10.0 mi SW 16.1 mph 23.0 mph N/A   Clear
5:52 PM 50.0 °F - 17.1 °F 27% 29.83 in 10.0 mi WSW 10.4 mph - N/A   Clear
6:52 PM 48.0 °F - 19.0 °F 32% 29.98 in 10.0 mi WSW 8.1 mph - N/A   Overcast
7:52 PM 46.9 °F - 21.9 °F 37% 29.98 in 10.0 mi WSW 6.9 mph - N/A   Scattered Clouds
8:52 PM 46.4 °F 42.9 °F 24.8 °F 43% 29.82 in 10.0 mi SW 6.9 mph - N/A   Clear
9:52 PM 44.1 °F 39.5 °F 25.0 °F 47% 29.84 in 10.0 mi South 8.1 mph - N/A   Scattered Clouds
10:52 PM 43.0 °F 38.2 °F 28.0 °F 56% 29.85 in 10.0 mi SSW 8.1 mph - N/A   Partly Cloudy
11:52 PM 39.2 °F - 28.4 °F 65% 29.84 in 10.0 mi Calm Calm - N/A   Clear